TimeMDT,TemperatureF,Dew PointF,Humidity,Sea Level PressureIn,VisibilityMPH,Wind Direction,Wind SpeedMPH,Gust SpeedMPH,PrecipitationIn,Events,Conditions,WindDirDegrees,DateUTC
12:15 AM,73.4,19.4,13,29.66,10.0,SE,10.4,-,N/A,,Clear,140,2013-05-23 06:15:00
12:35 AM,73.4,21.2,14,29.67,10.0,SSE,11.5,-,N/A,,Clear,150,2013-05-23 06:35:00
12:55 AM,73.4,21.2,14,29.68,10.0,SSE,9.2,-,N/A,,Clear,150,2013-05-23 06:55:00
1:15 AM,71.6,21.2,15,29.68,10.0,SE,11.5,-,N/A,,Clear,140,2013-05-23 07:15:00
1:35 AM,71.6,21.2,15,29.67,10.0,SE,11.5,-,N/A,,Clear,140,2013-05-23 07:35:00
1:55 AM,71.6,21.2,15,29.68,10.0,South,9.2,-,N/A,,Clear,170,2013-05-23 07:55:00
2:15 AM,69.8,21.2,16,29.68,10.0,Calm,Calm,-,N/A,,Clear,0,2013-05-23 08:15:00
2:35 AM,71.6,23.0,16,29.69,10.0,South,8.1,-,N/A,,Clear,190,2013-05-23 08:35:00
2:55 AM,68.0,21.2,17,29.70,10.0,SSE,5.8,-,N/A,,Clear,160,2013-05-23 08:55:00
3:15 AM,69.8,21.2,16,29.70,10.0,South,5.8,-,N/A,,Clear,190,2013-05-23 09:15:00
3:55 AM,68.0,21.2,17,29.71,10.0,SSE,6.9,-,N/A,,Clear,160,2013-05-23 09:55:00
4:15 AM,69.8,23.0,17,29.72,10.0,South,8.1,-,N/A,,Clear,180,2013-05-23 10:15:00
4:35 AM,66.2,21.2,18,29.72,10.0,SE,9.2,-,N/A,,Clear,140,2013-05-23 10:35:00
4:55 AM,66.2,21.2,18,29.72,10.0,SE,9.2,-,N/A,,Clear,130,2013-05-23 10:55:00
5:15 AM,64.4,21.2,19,29.72,10.0,ESE,11.5,-,N/A,,Clear,120,2013-05-23 11:15:00
5:35 AM,64.4,23.0,21,29.73,10.0,ESE,9.2,-,N/A,,Clear,120,2013-05-23 11:35:00
5:55 AM,62.6,21.2,20,29.73,10.0,ESE,9.2,-,N/A,,Clear,120,2013-05-23 11:55:00
6:15 AM,64.4,21.2,19,29.74,10.0,SE,9.2,-,N/A,,Clear,140,2013-05-23 12:15:00
6:35 AM,64.4,21.2,19,29.75,10.0,SSE,12.7,-,N/A,,Clear,160,2013-05-23 12:35:00
6:55 AM,64.4,21.2,19,29.75,10.0,SSE,9.2,-,N/A,,Clear,150,2013-05-23 12:55:00
7:15 AM,62.6,21.2,20,29.76,10.0,SE,11.5,-,N/A,,Clear,140,2013-05-23 13:15:00
7:35 AM,64.4,21.2,19,29.76,10.0,SE,8.1,-,N/A,,Clear,130,2013-05-23 13:35:00
7:55 AM,66.2,21.2,18,29.77,10.0,SE,5.8,-,N/A,,Clear,140,2013-05-23 13:55:00
8:15 AM,69.8,21.2,16,29.77,10.0,SE,6.9,-,N/A,,Clear,130,2013-05-23 14:15:00
8:35 AM,71.6,21.2,15,29.78,10.0,SE,4.6,-,N/A,,Clear,130,2013-05-23 14:35:00
8:55 AM,73.4,21.2,14,29.78,10.0,South,5.8,-,N/A,,Clear,190,2013-05-23 14:55:00
9:35 AM,75.2,21.2,13,29.79,10.0,SE,8.1,-,N/A,,Clear,140,2013-05-23 15:35:00
9:55 AM,75.2,21.2,13,29.79,10.0,SW,4.6,-,N/A,,Clear,220,2013-05-23 15:55:00
10:15 AM,77.0,21.2,12,29.79,10.0,SSW,18.4,24.2,N/A,,Clear,200,2013-05-23 16:15:00
10:55 AM,80.6,19.4,10,29.78,10.0,SW,27.6,-,N/A,,Clear,220,2013-05-23 16:55:00
11:15 AM,80.6,21.2,11,29.78,10.0,SW,20.7,29.9,N/A,,Clear,220,2013-05-23 17:15:00
11:35 AM,80.6,21.2,11,29.78,10.0,SSW,24.2,32.2,N/A,,Clear,210,2013-05-23 17:35:00
11:55 AM,82.4,21.2,10,29.78,10.0,SW,28.8,35.7,N/A,,Clear,220,2013-05-23 17:55:00
12:15 PM,82.4,21.2,10,29.78,10.0,SW,29.9,34.5,N/A,,Clear,220,2013-05-23 18:15:00
12:35 PM,84.2,21.2,10,29.78,10.0,SW,28.8,41.4,N/A,,Clear,220,2013-05-23 18:35:00
12:55 PM,84.2,21.2,10,29.78,10.0,SW,27.6,35.7,N/A,,Clear,220,2013-05-23 18:55:00
1:15 PM,84.2,23.0,11,29.78,10.0,SW,23.0,39.1,N/A,,Clear,230,2013-05-23 19:15:00
1:35 PM,84.2,23.0,11,29.77,10.0,SW,23.0,32.2,N/A,,Clear,220,2013-05-23 19:35:00
1:55 PM,86.0,24.8,11,29.77,10.0,WSW,24.2,38.0,N/A,,Clear,240,2013-05-23 19:55:00
2:15 PM,86.0,24.8,11,29.77,10.0,SSW,28.8,35.7,N/A,,Clear,200,2013-05-23 20:15:00
2:35 PM,87.8,24.8,10,29.76,10.0,SW,23.0,35.7,N/A,,Clear,220,2013-05-23 20:35:00
3:15 PM,87.8,24.8,10,29.74,10.0,SW,31.1,36.8,N/A,,Clear,220,2013-05-23 21:15:00
3:55 PM,87.8,24.8,10,29.74,10.0,SW,25.3,35.7,N/A,,Clear,230,2013-05-23 21:55:00
4:15 PM,87.8,26.6,11,29.74,10.0,SW,28.8,40.3,N/A,,Clear,220,2013-05-23 22:15:00
4:35 PM,87.8,24.8,10,29.73,10.0,SW,28.8,38.0,N/A,,Clear,220,2013-05-23 22:35:00
4:55 PM,87.8,24.8,10,29.73,10.0,SW,24.2,36.8,N/A,,Clear,220,2013-05-23 22:55:00
5:15 PM,87.8,24.8,10,29.73,10.0,SSW,28.8,34.5,N/A,,Clear,210,2013-05-23 23:15:00
5:35 PM,87.8,24.8,10,29.73,10.0,SW,29.9,35.7,N/A,,Clear,220,2013-05-23 23:35:00
5:55 PM,87.8,24.8,10,29.73,10.0,SSW,29.9,39.1,N/A,,Clear,210,2013-05-23 23:55:00
6:15 PM,87.8,24.8,10,29.73,10.0,SW,28.8,38.0,N/A,,Clear,220,2013-05-24 00:15:00
6:35 PM,87.8,24.8,10,29.73,10.0,SSW,24.2,33.4,N/A,,Clear,210,2013-05-24 00:35:00
6:55 PM,86.0,24.8,11,29.73,10.0,SW,29.9,33.4,N/A,,Clear,220,2013-05-24 00:55:00
7:15 PM,84.2,23.0,11,29.73,10.0,SW,29.9,33.4,N/A,,Clear,220,2013-05-24 01:15:00
7:35 PM,84.2,23.0,11,29.74,10.0,SW,26.5,32.2,N/A,,Clear,220,2013-05-24 01:35:00
7:55 PM,82.4,21.2,10,29.75,10.0,SW,27.6,-,N/A,,Clear,220,2013-05-24 01:55:00
8:15 PM,82.4,21.2,10,29.76,10.0,SW,24.2,31.1,N/A,,Clear,220,2013-05-24 02:15:00
8:35 PM,80.6,19.4,10,29.77,10.0,SW,23.0,26.5,N/A,,Clear,220,2013-05-24 02:35:00
9:15 PM,78.8,19.4,11,29.79,10.0,SW,18.4,-,N/A,,Clear,230,2013-05-24 03:15:00
9:35 PM,77.0,17.6,11,29.80,10.0,SW,17.3,-,N/A,,Clear,220,2013-05-24 03:35:00
9:55 PM,77.0,17.6,11,29.82,10.0,SSW,12.7,-,N/A,,Clear,210,2013-05-24 03:55:00
10:15 PM,75.2,17.6,11,29.85,10.0,South,8.1,-,N/A,,Clear,190,2013-05-24 04:15:00
10:35 PM,75.2,15.8,11,29.85,10.0,South,9.2,-,N/A,,Clear,170,2013-05-24 04:35:00
10:55 PM,73.4,15.8,11,29.86,10.0,South,10.4,-,N/A,,Clear,170,2013-05-24 04:55:00
11:15 PM,73.4,15.8,11,29.87,10.0,SSW,10.4,-,N/A,,Clear,200,2013-05-24 05:15:00
11:35 PM,71.6,15.8,12,29.88,10.0,SW,8.1,-,N/A,,Clear,230,2013-05-24 05:35:00
11:55 PM,69.8,15.8,13,29.88,10.0,SSW,6.9,-,N/A,,Clear,200,2013-05-24 05:55:00